Hourly Data Report for May 21, 2012

All times are specified in Local Standard Time (LST). Add 1 hour to adjust for Daylight Saving Time where and when it is observed.

SAULT STE MARIE A
ONTARIO

46°29'06.000" N
84°30'35.000" W
192.00 m
6057591
71260
YAM

Related Data

No related data is available for this station

Download Data

Hourly Data (May 2012)
Hourly Data Report for May 21, 2012
Temp Definition
°C
Dew Point Temp Definition
°C
Rel Hum Definition
%
Wind Dir Definition
10's deg

Wind Spd Definition
km/h
Visibility Definition
km
Stn Press Definition
kPa
Hmdx Definition


Wind Chill Definition


Weather Definition


TIME
00:00 Legend Double Dagger 18.5 13.6 73 13 11 10.0 98.87     Thunderstorms
01:00 Legend Double Dagger 16.4 15.8 96 29 8 10.0 98.91     Thunderstorms,Rain Showers
02:00 Legend Double Dagger 12.1 12.1 100 32 19 6.4 99.03     Fog
03:00 Legend Double Dagger 10.2 10.2 100 29 21 6.4 99.22     Fog
04:00 Legend Double Dagger 9.9 9.8 99 31 20 9.7 99.19     Fog
05:00 Legend Double Dagger 8.3 8.3 100 30 22 10.0 99.25     LegendNANA
06:00 Legend Double Dagger 7.6 7.6 100 29 20 8.1 99.34     Fog
07:00 Legend Double Dagger 7.3 7.3 100 30 21 10.0 99.38     Cloudy
08:00 Legend Double Dagger 7.0 7.0 100 28 19 4.0 99.44     Fog
09:00 Legend Double Dagger 7.4 7.4 100 30 34 4.0 99.38     Drizzle,Fog
10:00 Legend Double Dagger 7.3 7.6 102 30 33 6.4 99.50     Drizzle,Fog
11:00 Legend Double Dagger 9.0 9.0 100 32 21 4.8 99.56     Drizzle,Fog
12:00 Legend Double Dagger 9.9 9.1 95 31 22 10.0 99.59     LegendNANA
13:00 Legend Double Dagger 12.0 8.9 81 30 26 10.0 99.58     Mostly Cloudy
14:00 Legend Double Dagger 12.0 8.3 78 32 28 10.0 99.61     LegendNANA
15:00 Legend Double Dagger 12.0 7.6 74 33 29 10.0 99.66     LegendNANA
16:00 Legend Double Dagger 14.1 7.0 62 33 28 10.0 99.64     Mostly Cloudy
17:00 Legend Double Dagger 12.6 6.0 64 32 27 10.0 99.67     LegendNANA
18:00 Legend Double Dagger 11.0 5.6 69 32 31 10.0 99.67     LegendNANA
19:00 Legend Double Dagger 10.1 5.3 72 31 21 10.0 99.67     Mainly Clear
20:00 Legend Double Dagger 8.7 5.1 78 29 21 10.0 99.64     LegendNANA
21:00 Legend Double Dagger 8.0 5.1 82 28 18 10.0 99.67     LegendNANA
22:00 Legend Double Dagger 7.1 5.6 90 29 21 10.0 99.68     Clear
23:00 Legend Double Dagger 6.8 5.1 89 30 19 10.0 99.71     LegendNANA

Notes on Data Quality.

Legend

  • E = Estimated
  • M = Missing
  • NA = Not Available
  • ‡ = Partner data that is not subject to review by the National Climate Archives
Date modified: